C31FR-13 Weather Reports


Display with metric or nautical units.
time (UTC)temp
F
wind
direction
speed
MPH
gust
MPH
rain 1hr
in
rain 24hr
in
rain mn
in
humidity
%
barometer
mb
20260902004602 69 0.0 0.0 0.00 0.00 0.00 64 1024.5
20260902004102 69 0.0 0.0 0.00 0.00 0.00 64 1024.5
20260902003602 69 0.0 0.0 0.00 0.00 0.00 63 1024.5
20260902002602 70 0.0 0.0 0.00 0.00 0.00 63 1024.4
20260902001602 69 0.0 0.0 0.00 0.00 0.00 63 1024.4
20260901235101 70 0.0 0.0 0.00 0.00 0.00 62 1024.2
20260901231603 70 0.0 0.0 0.00 0.00 0.00 62 1024.2
20260901230603 71 0.0 0.0 0.00 0.00 0.00 62 1024.1
20260901222602 71 0.0 0.0 0.00 0.00 0.00 61 1024.0
20260901220603 71 0.0 0.0 0.00 0.00 0.00 61 1023.9
20260901215102 72 0.0 0.0 0.00 0.00 0.00 59 1023.8
20260901212103 73 0.0 0.0 0.00 0.00 0.00 59 1023.6
20260901211603 73 0.0 0.0 0.00 0.00 0.00 59 1023.6
20260901205602 73 0.0 0.0 0.00 0.00 0.00 59 1023.4
20260901204102 73 0.0 0.0 0.00 0.00 0.00 59 1023.5
20260901203102 73 0.0 0.0 0.00 0.00 0.00 60 1023.4
20260901202102 74 0.0 0.0 0.00 0.00 0.00 57 1023.2
20260901201603 75 0.0 0.0 0.00 0.00 0.00 57 1023.2
20260901195101 75 0.0 0.0 0.00 0.00 0.00 57 1022.8
20260901193603 75 0.0 0.0 0.00 0.00 0.00 56 1022.5
20260901193101 76 0.0 0.0 0.00 0.00 0.00 55 1022.3
20260901190602 76 0.0 0.0 0.00 0.00 0.00 52 1022.1
20260901185102 77 0.0 0.0 0.00 0.00 0.00 51 1021.8
20260901181602 78 0.0 0.0 0.00 0.00 0.00 48 1021.4
20260901175602 79 0.0 0.0 0.00 0.00 0.00 46 1021.2
20260901175102 79 0.0 0.0 0.00 0.00 0.00 46 1021.2
20260901174102 79 0.0 0.0 0.00 0.00 0.00 45 1021.1
20260901171602 80 0.0 0.0 0.00 0.00 0.00 43 1021.1
20260901171102 81 0.0 0.0 0.00 0.00 0.00 41 1021.0
20260901164102 83 0.0 0.0 0.00 0.00 0.00 39 1020.8
20260901160602 83 0.0 0.0 0.00 0.00 0.00 38 1020.9
20260901155602 84 0.0 0.0 0.00 0.00 0.00 37 1020.8
20260901153602 83 0.0 0.0 0.00 0.00 0.00 38 1020.8
20260901152603 82 0.0 0.0 0.00 0.00 0.00 39 1020.8
20260901150602 81 0.0 0.0 0.00 0.00 0.00 40 1021.0
20260901145102 81 0.0 0.0 0.00 0.00 0.00 41 1021.0
20260901143603 81 0.0 0.0 0.00 0.00 0.00 41 1021.1
20260901142102 81 0.0 0.0 0.00 0.00 0.00 40 1021.1
20260901140602 81 0.0 0.0 0.00 0.00 0.00 41 1021.3
20260901134602 81 0.0 0.0 0.00 0.00 0.00 41 1021.6
20260901133101 79 0.0 0.0 0.00 0.00 0.00 43 1021.7
20260901125602 80 0.0 0.0 0.00 0.00 0.00 43 1021.6
20260901122602 80 0.0 0.0 0.00 0.00 0.00 41 1021.9
20260901115102 79 0.0 0.0 0.00 0.00 0.00 41 1022.1
20260901114102 78 0.0 0.0 0.00 0.00 0.00 42 1022.2
20260901113102 78 0.0 0.0 0.00 0.00 0.00 42 1022.1
20260901110602 77 0.0 0.0 0.00 0.00 0.00 43 1022.0
20260901104601 76 0.0 0.0 0.00 0.00 0.00 45 1022.1
20260901102102 74 0.0 0.0 0.00 0.00 0.00 49 1022.5
20260901093602 72 0.0 0.0 0.00 0.00 0.00 54 1023.4
20260901092602 71 0.0 0.0 0.00 0.00 0.00 59 1023.5
20260901092102 72 0.0 0.0 0.00 0.00 0.00 58 1023.6
20260901091602 72 0.0 0.0 0.00 0.00 0.00 58 1023.6
20260901090602 71 0.0 0.0 0.00 0.00 0.00 58 1023.6
20260901085102 70 0.0 0.0 0.00 0.00 0.00 60 1023.7
20260901083602 69 0.0 0.0 0.00 0.00 0.00 60 1023.7
20260901082602 69 0.0 0.0 0.00 0.00 0.00 60 1023.7
20260901074601 68 0.0 0.0 0.00 0.00 0.00 60 1023.8
20260901064102 66 0.0 0.0 0.00 0.00 0.00 65 1024.0
20260901060601 65 0.0 0.0 0.00 0.00 0.00 66 1024.0
20260901055602 65 0.0 0.0 0.00 0.00 0.00 66 1023.9
20260901045102 67 0.0 0.0 0.00 0.00 0.00 64 1024.0
20260901043602 67 0.0 0.0 0.00 0.00 0.00 64 1023.9
20260901041102 67 0.0 0.0 0.00 0.00 0.00 64 1024.0
20260901040602 67 0.0 0.0 0.00 0.00 0.00 64 1024.1
20260901035603 67 0.0 0.0 0.00 0.00 0.00 65 1024.0
20260901034602 67 0.0 0.0 0.00 0.00 0.00 64 1024.1
20260901034102 67 0.0 0.0 0.00 0.00 0.00 64 1024.1
20260901030603 67 0.0 0.0 0.00 0.00 0.00 64 1024.0
20260901023603 67 0.0 0.0 0.00 0.00 0.00 65 1024.1
20260901020602 67 0.0 0.0 0.00 0.00 0.00 63 1024.4
20260901013602 68 0.0 0.0 0.00 0.00 0.00 62 1024.2